TimeMST,TemperatureF,Dew PointF,Humidity,Sea Level PressureIn,VisibilityMPH,Wind Direction,Wind SpeedMPH,Gust SpeedMPH,PrecipitationIn,Events,Conditions,WindDirDegrees,DateUTC
12:53 AM,-0.9,-6.0,79,30.53,10.0,Calm,Calm,-,N/A,,Clear,0,2013-01-04 07:53:00
1:53 AM,-0.9,-5.1,83,30.50,10.0,Calm,Calm,-,N/A,,Clear,0,2013-01-04 08:53:00
2:53 AM,-2.0,-8.0,76,30.51,10.0,Calm,Calm,-,N/A,,Clear,0,2013-01-04 09:53:00
3:53 AM,-0.0,-6.0,76,30.50,10.0,Calm,Calm,-,N/A,,Clear,0,2013-01-04 10:53:00
4:53 AM,-4.0,-6.0,91,30.52,10.0,Calm,Calm,-,N/A,,Clear,0,2013-01-04 11:53:00
5:53 AM,-5.1,-9.9,80,30.53,10.0,NNW,4.6,-,N/A,,Clear,330,2013-01-04 12:53:00
6:53 AM,-7.1,-11.9,79,30.55,10.0,WNW,3.5,-,N/A,,Clear,300,2013-01-04 13:53:00
7:48 AM,-4.0,-9.4,78,30.20,1.0,Calm,Calm,-,N/A,,Haze,0,2013-01-04 14:48:00
7:53 AM,-2.9,-9.0,75,30.54,0.8,South,3.5,-,N/A,,Haze,170,2013-01-04 14:53:00
7:58 AM,-4.0,-9.4,78,30.20,3.0,South,3.5,-,N/A,,Haze,170,2013-01-04 14:58:00
8:53 AM,-0.9,-6.0,79,30.53,10.0,WSW,3.5,-,N/A,,Clear,250,2013-01-04 15:53:00
9:53 AM,6.1,1.0,80,30.52,10.0,Calm,Calm,-,N/A,,Clear,0,2013-01-04 16:53:00
10:53 AM,6.1,-0.9,73,30.49,10.0,Calm,Calm,-,N/A,,Clear,0,2013-01-04 17:53:00
11:53 AM,3.9,-2.0,76,30.49,10.0,Calm,Calm,-,N/A,,Clear,0,2013-01-04 18:53:00
12:53 PM,6.1,-2.0,69,30.43,10.0,NE,3.5,-,N/A,,Clear,50,2013-01-04 19:53:00
1:53 PM,9.0,-0.0,67,30.41,10.0,NE,3.5,-,N/A,,Clear,50,2013-01-04 20:53:00
2:53 PM,12.0,1.9,64,30.40,10.0,NNE,3.5,-,N/A,,Clear,30,2013-01-04 21:53:00
3:53 PM,10.0,-0.0,64,30.40,10.0,Calm,Calm,-,N/A,,Clear,0,2013-01-04 22:53:00
4:53 PM,8.1,-0.0,70,30.43,10.0,Calm,Calm,-,N/A,,Clear,0,2013-01-04 23:53:00
5:53 PM,8.1,1.0,73,30.44,10.0,SSW,3.5,-,N/A,,Clear,200,2013-01-05 00:53:00
6:53 PM,6.1,-2.0,69,30.49,10.0,Calm,Calm,-,N/A,,Clear,0,2013-01-05 01:53:00
7:53 PM,1.0,-6.0,72,30.51,10.0,WSW,6.9,-,N/A,,Clear,250,2013-01-05 02:53:00
8:53 PM,3.9,-2.0,76,30.46,10.0,Calm,Calm,-,N/A,,Clear,0,2013-01-05 03:53:00
9:53 PM,-0.9,-6.0,79,30.47,10.0,North,4.6,-,N/A,,Clear,350,2013-01-05 04:53:00
10:53 PM,3.0,-5.1,69,30.44,10.0,Calm,Calm,-,N/A,,Clear,0,2013-01-05 05:53:00
11:53 PM,-0.0,-6.0,76,30.45,10.0,Calm,Calm,-,N/A,,Clear,0,2013-01-05 06:53:00